Estació municipal de El Brull (Osona, P.N. del Montseny)

Consulta les dades en temps real de l'estació municipal de El Brull





Hora UTC 03:40
Temperatura 18.0 ºC
Humitat 89.0 %
Pressió 1022.7 hPa
Pluja 0.0 mm
Velocitat vent 0.5 km/h
Direcció vent SSW
Radiació solar 0.0 W/m²

Webcam

Dades diàries 2026-09-01



Hora UTC (hivern +1h; estiu +2h)
Temperatura (ºC) Humitat (%) Pressió (hPa) Velocitat vent (km/h) Precipitació (mm) Radiació solar (W/m²)
Hora UTC Aire Humitat Pressió Vel. Dir. Vel. Max Dir. Intent. màx 5 min. Rad. Sol.
00:10 18.6 84.1 1023.5 1.2 SSW 3.6 S 0.0 0.0
00:30 18.5 85.7 1023.4 1.1 SE 2.9 SE 0.0 0.0
00:50 18.4 86.6 1023.4 2.9 S 5.4 S 0.0 0.0
01:00 18.6 87.3 1023.4 3.7 S 6.7 SSW 0.0 0.0
01:10 18.6 87.7 1023.4 4.3 SSW 7.4 SSW 0.0 0.0
01:20 18.6 88.2 1023.3 2.9 SSW 5.3 SSW 0.0 0.0
01:30 18.5 88.6 1023.4 3.6 SSW 8.1 SSW 0.0 0.0
01:40 18.4 89.0 1023.4 2.9 SSW 5.3 SSW 0.0 0.0
01:50 18.3 89.3 1023.4 2.6 S 6.0 SSE 0.0 0.0
02:00 18.3 89.0 1023.3 3.2 S 5.3 S 0.0 0.0
02:10 18.3 88.8 1023.3 2.8 SSW 5.3 S 0.0 0.0
02:20 18.3 88.7 1023.3 3.1 S 4.9 SW 0.0 0.0
02:30 18.3 89.0 1023.2 3.6 S 6.0 S 0.0 0.0
02:40 18.4 89.3 1023.0 2.2 S 4.4 S 0.0 0.0
02:50 18.4 89.5 1023.0 1.6 SSW 3.1 SSW 0.0 0.0
03:00 18.5 89.3 1023.0 1.9 S 2.9 SSE 0.0 0.0
03:10 18.4 89.3 1022.9 1.9 S 2.7 S 0.0 0.0
03:20 18.3 88.9 1022.8 2.2 SSE 3.1 SSE 0.0 0.0
03:30 18.1 88.6 1022.7 1.4 SSE 4.2 SSE 0.0 0.0
03:40 18.0 89.0 1022.7 0.5 SSW 3.5 SSW 0.0 0.0
Màxima 18.6 89.5 1023.5 4.3 SSW 8.1 SSW 0.0 0.0
Mínima 18.0 84.1 1022.7
Total 0.0